Location: Alexander
(41.3564°N, 81.5960°W)
Time: 09:35:34
(UTC+00:00)

Cosmos 1844 Rocket - Pass Details

Date: 24 January 2021
Orbit: 826 x 843 km, 71.0° (Epoch: 02 March)

Event Time Altitude Azimuth Distance (km) Brightness Sun altitude
Rises 23:45:09 0° 222° (SW) 3,388 6.8 -13.6°
Reaches altitude 10° 23:47:42 10° 229° (SW) 2,456 6.1 -14.0°
Maximum altitude 23:53:03 43° 300° (WNW) 1,171 3.8 -15.0°
Drops below altitude 10° 23:58:25 10° 11° (NNE) 2,462 4.9 -16.0°
Enters shadow 00:00:45 - 18° (NNE) 3,307 5.5 -16.4°
